Regional Weather Roundup
Issued by NWS Cleveland, OH

Home | Current Version | Previous Version | Graphics & Text | Print | Product List | Glossary On
Versions: 1 2 3 4 5 6 7 8 9 10 11 12 13 14 15 16 17 18 19 20 21 22 23 24 25 26 27 28 29 30 31 32 33 34 35 36 37 38 39 40 41 42 43 44 45 46 47 48 49 50
000
ASUS41 KCLE 221702
RWRCLE
OHIO REGIONAL WEATHER ROUNDUP
NATIONAL WEATHER SERVICE CLEVELAND, OH
100 PM EDT SUN OCT 22 2017

NOTE: "FAIR" INDICATES FEW OR NO CLOUDS BELOW 12,000 FEET WITH NO
SIGNIFICANT WEATHER AND/OR OBSTRUCTIONS TO VISIBILITY.

OHZ001>008-015>018-024>027-034-035-043-044-221800-
   NORTHWEST OHIO

CITY           SKY/WX    TMP DP  RH WIND       PRES   REMARKS
DEFIANCE       SUNNY     74  53  48 S14G24    30.11F
FINDLAY        SUNNY     77  53  43 S20       30.15F
TOLEDO EXPRESS SUNNY     75  57  53 S12G23    30.12F
TOLEDO EXEC    SUNNY     75  55  49 S16       30.15F
LIMA           SUNNY     74  54  49 S18G24    30.16F
$$

OHZ009>014-019>023-028>033-038-089-221800-
   NORTHEAST OHIO

CITY           SKY/WX    TMP DP  RH WIND       PRES   REMARKS
CLE-HOPKINS    MOSUNNY   75  51  43 SW15      30.22F
CLE-LAKEFRONT  SUNNY     76  48  37 S12       30.19F
CUY CO. ARPT   MOSUNNY   75  52  43 S14       30.22F
LORAIN-ELYRIA  SUNNY     74  50  42 SW15G21   30.20F
ASHTABULA      SUNNY     72  52  49 S10       30.24F
AKRON-CANTON   PTSUNNY   72  51  47 S8        30.25F
WOOSTER        SUNNY     74  52  46 S12G17    30.24F
MANSFIELD      SUNNY     74  54  49 S10G18    30.22F
YOUNGSTOWN     CLOUDY    71  53  52 SE9       30.25F
$$

OHZ042-051>053-060>062-070>072-077>081-221800-
  SOUTHWEST OHIO

CITY           SKY/WX    TMP DP  RH WIND       PRES   REMARKS
CINC-COVINGTON CLOUDY    74  56  53 S17       30.17F
CINC-LUNKEN    CLOUDY    72  55  55 S13       30.18F
HAMILTON       SUNNY     76  55  48 S13G20    30.18F
DAYTON         MOSUNNY   73  55  53 S16G24    30.18F
WRIGHT-PAT AFB SUNNY     75  52  44 S17       30.18F
DAYTON GENERAL SUNNY     73  53  49 S15G24    30.18F
WILMINGTON     SUNNY     73  54  51 S20       30.20F
$$

OHZ036-037-039>041-045>050-054>059-063>069-073>076-082>088-221800-
  CENTRAL AND SOUTHEAST OHIO

CITY           SKY/WX    TMP DP  RH WIND       PRES   REMARKS
COLUMBUS       MOSUNNY   75  53  46 S14       30.21F
OSU AIRPORT    SUNNY     74  55  51 S14G20    30.21F
BOLTON FIELD   SUNNY     73  54  49 SW14G20   30.22F
RICKENBACK AFB SUNNY     74  52  45 S10       30.21F
NEWARK         SUNNY     76  51  41 SW8       30.22F
MARION         SUNNY     75  53  46 S16G23    30.20F
LANCASTER      SUNNY     74  53  48 SW13      30.23F
ZANESVILLE     SUNNY     72  52  49 CALM      30.25F
NEW PHILLY     NOT AVBL
$$




USA.gov is the U.S. government's official web portal to all federal, state and local government web resources and services.